Showing default

PE2_FLT2 (TYVAK-0262), 59104

Orbit data source: Space-Track

PE2_FLT2 (TYVAK-0262), 59104 is a payload satellite owned by Tyvak NSS (US) in SSO that was launched on Mon, 04 Mar 2024 UTC via an FALCON 9 launch vehicle from the Air Force Western Test Range (AFWTR). Payload-class satellites include a variety of spacecraft equipped with specific instruments for various scientific and technological missions. These include communications satellites like Starlink; space stations such as the ISS; scientific satellites like the Hubble; Earth observation satellites from companies like Planet Labs, Umbra, and HawkEye 360; GPS; miniature CubeSats for education and research; and military/defense satellites.

Loading next visibility...
Identifier
59104, 2024-043G
Orbit
SSO
Country
Flag of USUS
Related business
Manufacturer
Tyvak NSS
Mission
Operational Commercial Technology
Bus & Motor
CUBESAT 12U, Unknown motor
Mass
26 kg wet, 26 kg dry
Launch date (UTC)
2024-03-04 (2 years ago)
Launch vehicle
FALCON 9
Launch site
Air Force Western Test Range (AFWTR)
Object type
Payload
Rocket body
Debris
Shape & HBR
Box + 2 Pan, 0.7 m
Radar Cross Section
0.149 m², Medium (>0.1 m² and < 1m²)

Expand to show TLE details & history
Last TLE update: 15 hours ago

TLE from 15 hours ago
0 PE2_FLT2 (TYVAK-0262)
1 59104U 24043G   25293.85238794  .00006141  00000-0  56487-3 0  9994
2 59104  97.8140  59.6280 0007845 119.6799 240.5204 14.95107337 88863
Epoch: 2025-10-20T20:27Z
TLE epoch observation values (Epoch: 2025-10-20T20:27:26.318Z)
Latitude
0.00007°
Longitude
83.21958°
Altitude
587.775 km
Speed
7.565 km/s
True Right ascension
03h 58m 30s
True Declination
0° 00' 00"
Sunlit
Object was in full shadow at epoch
Visualization orbit readout
Latitude
Unknown
Longitude
Unknown
Altitude
Unknown
Speed
Unknown
Apparent Right ascension
Unknown
Apparent Declination
Unknown
Sunlit
N/A
Visualization observer readout
Local Sidereal Time
06:33:07
Azimuth
Unknown
Elevation
Unknown
Doppler factor
Unknown
Orbital elements
Apogee altitude
584.514 km
Perigee altitude
573.599 km
Semi-major axis
6,957.193 km
Eccentricity
0.00078
Inclination
97.814°
RAAN
59.628°
Arg. of periapsis
119.6799°
True anomaly
240.44218°
Mean anomaly
240.5204°
Eccentric anomaly
240.48129°
Mean motion
3.74018 °/min
Orbital period
96.25 mins
BSTAR
0.00056487
Loading maneuver chart data...
Computing Atmospheric mass density...
Loading historical data...
Loading historical data...
Loading historical data...
Loading historical data...
Loading historical data...
Loading historical data...
Loading historical data...

Documentation

Showing up to 5 results
|